FW7665 Weather Reports


Display with metric or nautical units.
time (UTC)temp
F
wind
direction
speed
MPH
gust
MPH
rain 1hr
in
rain 24hr
in
rain mn
in
humidity
%
barometer
mb
20260906043624 55 0 0.0 0.0 0.00 0.05 0.05 90 1024.1
20260906042705 55 0 0.0 0.0 0.00 0.05 0.05 89 1024.1
20260906041803 55 0 0.0 0.0 0.00 0.05 0.05 89 1024.1
20260906040925 55 0 0.0 0.0 0.00 0.05 0.05 89 1024.1
20260906040010 55 0 0.0 0.0 0.00 0.05 0.05 89 1024.1
20260906035409 55 0 0.0 0.0 0.00 0.05 0.05 89 1024.1
20260906034529 55 258 0.0 1.0 0.00 0.05 0.05 89 1024.1
20260906033609 54 209 0.0 4.0 0.00 0.05 0.05 89 1024.1
20260906032708 54 178 0.0 2.0 0.00 0.05 0.05 89 1024.1
20260906031809 54 0 0.0 0.0 0.00 0.05 0.05 88 1024.1
20260906030908 54 0 0.0 0.0 0.01 0.05 0.05 87 1024.1
20260906030010 54 0 0.0 0.0 0.01 0.05 0.05 87 1024.1
20260906025409 54 0 0.0 0.0 0.01 0.05 0.05 86 1024.1
20260906024508 54 0 0.0 0.0 0.01 0.05 0.05 85 1024.1
20260906023609 55 0 0.0 0.0 0.01 0.05 0.05 85 1024.1
20260906022729 55 0 0.0 0.0 0.01 0.05 0.05 84 1024.1
20260906021811 56 0 0.0 0.0 0.01 0.05 0.05 84 1024.1
20260906020929 56 0 0.0 0.0 0.00 0.04 0.04 84 1024.1
20260906020009 57 0 0.0 0.0 0.04 0.04 0.04 82 1024.1
20260906015409 58 0 0.0 0.0 0.04 0.04 0.04 81 1024.1
20260906014508 59 0 0.0 0.0 0.04 0.04 0.04 79 1024.1
20260906013609 60 0 0.0 0.0 0.04 0.04 0.04 78 1024.1
20260906012729 61 0 0.0 0.0 0.04 0.04 0.04 76 1024.1
20260906011809 62 0 0.0 0.0 0.04 0.04 0.04 73 1024.1
20260906010908 65 0 0.0 0.0 0.04 0.04 0.04 69 1024.1
20260906010009 68 274 0.0 2.0 0.00 0.00 0.00 55 1024.1
20260906005414 68 280 1.0 3.0 0.00 0.00 0.00 47 1024.1
20260906004513 68 281 1.0 2.0 0.00 0.00 0.00 46 1024.1
20260906003614 69 272 0.0 2.0 0.00 0.00 0.00 47 1024.1
20260906002734 69 272 1.0 6.0 0.00 0.00 0.00 42 1024.1
20260906001813 69 266 1.0 4.0 0.00 0.00 0.00 43 1024.1
20260906000933 69 260 2.0 7.0 0.00 0.00 0.00 42 1024.1
20260906000014 70 275 2.0 7.0 0.00 0.00 0.00 42 1024.1
20260905235413 70 282 2.0 7.0 0.00 0.00 0.00 42 1024.1
20260905234512 70 275 1.0 5.0 0.00 0.00 0.00 44 1024.1
20260905233614 71 259 1.0 2.0 0.00 0.00 0.00 42 1024.1
20260905232712 71 297 1.0 3.0 0.00 0.00 0.00 36 1024.1
20260905231817 72 13 1.0 5.0 0.00 0.00 0.00 37 1024.1
20260905230912 72 264 2.0 5.0 0.00 0.00 0.00 35 1024.1
20260905230014 72 254 2.0 8.0 0.00 0.00 0.00 40 1024.1
20260905225413 72 259 1.0 8.0 0.00 0.00 0.00 38 1024.1
20260905224533 72 245 1.0 2.0 0.00 0.00 0.00 36 1024.2
20260905223613 73 252 1.0 3.0 0.00 0.00 0.00 37 1024.2
20260905222733 73 253 1.0 4.0 0.00 0.00 0.00 34 1024.2
20260905221813 74 136 2.0 9.0 0.00 0.00 0.00 36 1024.2
20260905220933 74 147 2.0 7.0 0.00 0.00 0.00 31 1024.2
20260905220013 74 185 3.0 9.0 0.00 0.00 0.00 31 1024.2
20260905215413 75 123 3.0 9.0 0.00 0.00 0.00 31 1024.2
20260905214514 75 143 2.0 6.0 0.00 0.00 0.00 33 1024.2
20260905213613 75 110 1.0 3.0 0.00 0.00 0.00 32 1024.2
20260905212712 76 112 1.0 6.0 0.00 0.00 0.00 31 1024.6
20260905211813 77 99 2.0 9.0 0.00 0.00 0.00 30 1024.6
20260905210912 77 85 2.0 10.0 0.00 0.00 0.00 31 1024.6
20260905210014 78 101 3.0 11.0 0.00 0.00 0.00 30 1024.6
20260905205413 78 91 3.0 9.0 0.00 0.00 0.00 32 1024.6
20260905204512 79 109 3.0 9.0 0.00 0.00 0.00 31 1024.6
20260905203612 80 119 4.0 9.0 0.00 0.00 0.00 31 1024.6
20260905202712 80 105 5.0 12.0 0.00 0.00 0.00 28 1024.6
20260905201813 81 102 4.0 10.0 0.00 0.00 0.00 32 1024.6
20260905200912 80 93 3.0 10.0 0.00 0.00 0.00 30 1024.6
20260905200013 80 90 3.0 9.0 0.00 0.00 0.00 28 1024.6
20260905195412 79 91 2.0 9.0 0.00 0.00 0.00 30 1024.6
20260905194511 78 102 4.0 9.0 0.00 0.00 0.00 36 1024.6
20260905193612 77 118 3.0 12.0 0.00 0.00 0.00 34 1024.6
20260905192711 76 109 2.0 5.0 0.00 0.00 0.00 31 1024.6
20260905191812 77 104 2.0 7.0 0.00 0.00 0.00 30 1024.6
20260905190914 80 93 3.0 7.0 0.00 0.00 0.00 31 1024.6
20260905190012 80 101 5.0 11.0 0.00 0.00 0.00 30 1024.6
20260905185433 78 113 4.0 11.0 0.00 0.00 0.00 32 1024.6
20260905184513 76 121 3.0 8.0 0.00 0.00 0.00 33 1024.6
20260905183612 75 126 2.0 5.0 0.00 0.00 0.00 31 1024.6
20260905182711 79 113 2.0 9.0 0.00 0.00 0.00 29 1025.3
20260905181833 77 58 2.0 5.0 0.00 0.00 0.00 33 1025.3
20260905180913 75 220 1.0 5.0 0.00 0.00 0.00 33 1025.3
20260905180034 76 178 2.0 4.0 0.00 0.00 0.00 31 1025.3
20260905175412 76 221 1.0 4.0 0.00 0.00 0.00 31 1025.3
20260905174511 77 84 2.0 4.0 0.00 0.00 0.00 34 1025.3
20260905173612 76 115 3.0 8.0 0.00 0.00 0.00 33 1025.3
20260905172711 75 124 2.0 5.0 0.00 0.00 0.00 31 1025.2
20260905171812 74 79 2.0 4.0 0.00 0.00 0.00 35 1025.2
20260905170911 76 79 2.0 4.0 0.00 0.00 0.00 30 1025.2
20260905170012 75 93 2.0 5.0 0.00 0.00 0.00 32 1025.2
20260905165412 74 63 2.0 5.0 0.00 0.00 0.00 36 1025.2
20260905164511 74 76 1.0 4.0 0.00 0.00 0.00 36 1025.2
20260905163612 75 101 1.0 3.0 0.00 0.00 0.00 31 1025.2
20260905162711 74 80 2.0 5.0 0.00 0.00 0.00 31 1025.5
20260905161833 72 108 2.0 6.0 0.00 0.00 0.00 35 1025.5
20260905160911 70 80 1.0 3.0 0.00 0.00 0.00 41 1025.5
20260905160012 68 69 1.0 6.0 0.00 0.00 0.00 44 1025.5
20260905155412 66 29 2.0 5.0 0.00 0.00 0.00 45 1025.5
20260905154511 64 270 2.0 7.0 0.00 0.00 0.00 51 1025.5
20260905153617 61 58 1.0 4.0 0.00 0.00 0.00 59 1025.5
20260905152711 58 63 2.0 10.0 0.00 0.00 0.00 64 1026.1
20260905151833 56 88 0.0 2.0 0.00 0.00 0.00 73 1026.1
20260905150911 54 95 1.0 4.0 0.00 0.00 0.00 77 1026.1
20260905150012 52 105 0.0 1.0 0.00 0.00 0.00 78 1026.1
20260905145411 52 0 0.0 0.0 0.00 0.00 0.00 77 1026.1
20260905144532 51 0 0.0 0.0 0.00 0.00 0.00 77 1026.1
20260905143632 50 0 0.0 0.0 0.00 0.00 0.00 78 1026.1
20260905142710 49 0 0.0 0.0 0.00 0.00 0.00 79 1025.9
20260905141811 48 0 0.0 0.0 0.00 0.00 0.00 79 1025.9
20260905140911 48 0 0.0 0.0 0.00 0.00 0.00 79 1025.9
20260905140033 47 0 0.0 0.0 0.00 0.00 0.00 79 1025.9
20260905135413 47 0 0.0 0.0 0.00 0.00 0.00 79 1025.9
20260905134510 46 0 0.0 0.0 0.00 0.00 0.00 78 1025.9
20260905133611 46 0 0.0 0.0 0.00 0.00 0.00 78 1025.9
20260905132710 46 0 0.0 0.0 0.00 0.00 0.00 77 1025.3
20260905131811 46 0 0.0 0.0 0.00 0.00 0.00 77 1025.3
20260905130910 46 0 0.0 0.0 0.00 0.00 0.00 77 1025.3
20260905130012 46 0 0.0 0.0 0.00 0.00 0.00 77 1025.3
20260905125411 46 0 0.0 0.0 0.00 0.00 0.00 78 1025.3
20260905124510 46 0 0.0 0.0 0.00 0.00 0.00 76 1025.3
20260905123611 46 0 0.0 0.0 0.00 0.00 0.00 77 1025.3
20260905122710 46 0 0.0 0.0 0.00 0.00 0.00 77 1025.4
20260905121811 46 0 0.0 0.0 0.00 0.00 0.00 77 1025.4
20260905120910 46 0 0.0 0.0 0.00 0.00 0.00 78 1025.4
20260905120032 46 0 0.0 0.0 0.00 0.00 0.00 77 1025.4
20260905115411 46 0 0.0 0.0 0.00 0.00 0.00 77 1025.4
20260905114514 46 0 0.0 0.0 0.00 0.00 0.00 78 1025.4
20260905113611 46 0 0.0 0.0 0.00 0.00 0.00 78 1025.4
20260905112710 47 0 0.0 0.0 0.00 0.00 0.00 77 1025.1
20260905111832 47 0 0.0 0.0 0.00 0.00 0.00 77 1025.1
20260905110931 47 0 0.0 0.0 0.00 0.00 0.00 76 1025.1
20260905110011 47 0 0.0 0.0 0.00 0.00 0.00 76 1025.1
20260905105411 47 0 0.0 0.0 0.00 0.00 0.00 77 1025.1
20260905104509 47 0 0.0 0.0 0.00 0.00 0.00 77 1025.1
20260905103611 47 0 0.0 0.0 0.00 0.00 0.00 77 1025.1
20260905102709 48 0 0.0 0.0 0.00 0.00 0.00 77 1024.9
20260905101811 48 0 0.0 0.0 0.00 0.00 0.00 76 1024.9
20260905100912 48 0 0.0 0.0 0.00 0.00 0.00 76 1024.9
20260905095410 48 0 0.0 0.0 0.00 0.00 0.00 75 1024.7
20260905094509 48 0 0.0 0.0 0.00 0.00 0.00 77 1024.7
20260905093631 48 0 0.0 0.0 0.00 0.00 0.00 75 1024.7
20260905092710 48 0 0.0 0.0 0.00 0.00 0.00 76 1024.7
20260905091831 48 0 0.0 0.0 0.00 0.00 0.00 75 1024.7
20260905090930 48 0 0.0 0.0 0.00 0.00 0.00 76 1024.7
20260905090032 49 0 0.0 0.0 0.00 0.00 0.00 74 1024.7
20260905085410 49 0 0.0 0.0 0.00 0.00 0.00 75 1024.7
20260905084509 49 0 0.0 0.0 0.00 0.00 0.00 73 1024.7
20260905083610 49 0 0.0 0.0 0.00 0.00 0.00 73 1024.7
20260905082709 50 0 0.0 0.0 0.00 0.00 0.00 73 1024.7
20260905081810 50 0 0.0 0.0 0.00 0.00 0.00 71 1024.7
20260905080909 50 0 0.0 0.0 0.00 0.00 0.00 70 1024.7
20260905080012 50 0 0.0 0.0 0.00 0.00 0.00 72 1024.7
20260905075414 50 0 0.0 0.0 0.00 0.00 0.00 70 1024.7
20260905074509 50 0 0.0 0.0 0.00 0.00 0.00 70 1024.7
20260905073612 51 0 0.0 0.0 0.00 0.00 0.00 70 1024.7
20260905072730 51 0 0.0 0.0 0.00 0.00 0.00 71 1024.7
20260905071810 51 0 0.0 0.0 0.00 0.00 0.00 69 1024.7
20260905070911 51 0 0.0 0.0 0.00 0.00 0.00 69 1024.7
20260905070026 51 0 0.0 0.0 0.00 0.00 0.00 70 1024.7
20260905065411 52 0 0.0 0.0 0.00 0.00 0.00 69 1024.7
20260905064509 52 0 0.0 0.0 0.00 0.00 0.00 67 1024.7
20260905063631 52 0 0.0 0.0 0.00 0.00 0.00 68 1024.6
20260905062709 52 0 0.0 0.0 0.00 0.00 0.00 67 1024.6
20260905061811 53 0 0.0 0.0 0.00 0.00 0.00 66 1024.6
20260905060909 53 0 0.0 0.0 0.00 0.00 0.00 66 1024.6
20260905060016 54 0 0.0 0.0 0.00 0.00 0.00 65 1024.6
20260905055409 54 0 0.0 0.0 0.00 0.00 0.00 65 1024.5
20260905054509 54 109 0.0 2.0 0.00 0.00 0.00 64 1024.5
20260905053610 54 0 0.0 0.0 0.00 0.00 0.00 65 1024.5
20260905052731 55 0 0.0 0.0 0.00 0.00 0.00 64 1024.5
20260905051810 55 0 0.0 0.0 0.00 0.00 0.00 61 1024.5
20260905050909 56 0 0.0 0.0 0.00 0.00 0.00 62 1024.5
20260905050010 56 0 0.0 0.0 0.00 0.00 0.00 59 1024.5
20260905045409 56 0 0.0 0.0 0.00 0.00 0.00 63 1024.3